GFSSGP_925_spd_057.txt.gz
Wind_Speed
12 8 10 5 2 2 6 8 14 16 10 6 6 7 5 3 5 4 29 26 38 43 39 36 33 30 27 24 23 21 18 17 15 14 12 11 9 9 8 7 6 6 6 6 6 5 5 5 4
9 5 5 3 3 2 6 18 19 19 15 4 8 7 7 3 7 13 16 35 43 43 41 37 34 31 29 26 23 22 20 18 17 14 13 11 10 9 8 7 7 7 7 7 6 6 5 5 3
7 4 2 4 4 9 6 7 11 15 21 5 4 5 1 7 12 14 28 41 42 40 40 37 34 31 29 27 25 22 21 19 17 15 14 13 12 11 9 9 9 9 8 8 7 7 6 5 4
3 3 4 0 10 13 22 17 17 18 11 7 6 4 6 17 14 21 41 42 41 39 38 34 32 30 29 27 25 23 22 20 18 16 16 15 14 13 12 11 10 9 9 9 8 8 8 6 4
5 2 3 4 11 15 18 17 13 15 11 5 5 3 9 7 27 42 42 40 41 39 36 34 31 29 28 27 25 23 22 21 19 19 18 17 16 15 14 13 12 12 10 10 9 10 8 7 6
2 2 2 5 13 17 18 14 7 11 11 8 5 4 5 27 39 38 39 38 40 40 36 35 31 29 28 26 24 23 22 21 20 20 19 18 18 17 16 15 15 14 13 12 11 12 9 8 8
7 3 7 8 15 18 18 13 8 8 8 10 4 1 7 17 34 42 39 35 34 36 35 34 33 30 27 26 25 23 22 21 21 21 21 20 20 19 19 18 17 17 16 15 14 14 12 11 10
2 5 15 15 15 19 18 12 8 6 11 8 5 6 4 4 37 36 36 36 34 32 32 33 35 32 31 29 26 24 23 22 22 22 22 23 22 21 21 20 20 19 19 18 17 16 15 14 13
6 5 12 19 18 17 13 14 15 8 8 9 3 5 4 17 32 30 28 26 31 31 31 30 34 35 33 31 28 26 24 23 23 24 24 24 25 24 24 24 23 23 22 22 21 19 18 17 15
7 7 17 14 15 17 16 13 15 11 8 8 7 4 9 20 11 18 19 18 28 31 31 29 29 33 34 30 29 28 27 27 28 28 27 28 28 26 26 26 25 26 26 24 23 21 21 19 19
8 17 14 16 17 20 22 21 17 17 10 10 7 7 6 9 12 10 13 24 33 41 37 35 30 29 33 32 29 27 29 28 28 30 29 31 30 29 28 28 26 27 28 26 25 24 24 24 21
16 17 18 20 20 23 25 21 22 17 15 12 9 7 6 10 10 9 14 22 29 37 41 40 35 32 30 29 29 27 27 28 31 33 32 33 32 33 32 31 29 28 28 30 28 27 28 26 23
18 17 17 19 18 20 23 26 22 22 17 19 12 9 9 13 10 13 5 3 16 22 28 29 29 30 27 27 28 28 30 28 28 26 27 32 34 35 33 33 30 31 31 31 29 29 29 28 25
8 14 16 16 18 19 21 24 19 23 17 20 18 10 7 9 15 4 3 2 11 15 27 29 27 26 28 30 29 31 28 29 27 28 26 29 32 33 33 33 33 34 32 32 30 28 31 29 25
13 11 15 16 14 13 8 19 28 21 14 16 20 20 15 8 14 12 20 15 10 14 9 19 19 36 30 35 32 27 28 28 27 29 25 30 34 35 33 33 32 31 33 30 31 28 28 30 28
7 8 7 1 10 15 8 26 22 11 18 21 15 18 21 13 10 19 29 22 29 22 16 19 14 30 37 41 38 36 32 29 31 27 24 31 35 36 36 34 33 31 28 29 29 29 33 29 29
6 8 12 16 13 12 11 25 24 16 14 16 20 18 18 21 13 17 24 27 20 32 33 31 31 38 42 43 35 26 22 26 34 30 30 34 34 38 38 38 33 31 32 29 28 26 30 31 29
8 8 9 12 5 7 13 20 17 16 21 21 18 15 16 18 21 19 25 31 26 22 28 33 34 33 33 28 23 17 19 21 25 28 31 33 31 33 37 36 32 29 28 32 29 28 23 17 21
11 12 12 14 11 13 12 18 20 15 16 17 22 20 16 17 20 26 30 29 30 23 28 30 27 23 26 23 19 20 24 25 29 32 33 31 30 32 35 33 31 30 27 26 29 23 22 20 14
12 13 12 10 10 14 13 19 19 18 17 17 18 19 21 14 10 9 16 26 26 28 30 34 33 31 29 28 25 22 21 25 29 32 36 32 30 32 33 35 30 26 27 22 23 23 17 18 15
14 14 13 14 11 14 9 16 22 21 16 17 19 16 16 22 18 13 13 16 27 29 35 35 32 31 31 29 27 26 25 26 24 23 23 30 30 29 29 29 29 28 22 23 21 21 20 16 15
10 13 17 16 12 9 4 16 12 17 22 15 17 17 12 9 11 17 16 11 17 30 37 36 35 34 33 30 28 28 25 21 31 23 22 29 27 28 28 27 23 22 21 26 21 21 19 16 14
12 12 16 16 14 13 12 11 15 9 18 18 16 18 20 13 10 15 16 12 22 18 19 25 26 28 29 32 35 33 30 30 25 22 23 27 26 25 25 22 21 22 20 25 22 21 20 19 14
13 12 9 7 3 11 14 11 20 14 19 20 21 19 21 22 11 11 18 20 22 29 29 29 31 34 36 37 37 34 33 28 19 21 28 28 26 23 22 21 19 22 18 20 19 23 19 15 18
8 8 4 4 2 5 10 11 16 19 20 19 18 19 22 20 22 20 12 9 12 22 26 28 32 36 37 37 38 38 36 27 26 23 27 27 26 24 23 20 18 24 18 16 19 19 19 18 16
5 4 4 5 10 15 13 9 14 10 16 16 14 19 18 20 22 14 13 12 11 20 26 27 28 29 32 38 38 38 32 31 24 25 30 30 30 27 23 19 20 21 20 15 17 19 19 16 14
11 5 10 10 15 8 11 18 16 20 5 16 20 23 26 26 21 14 6 7 9 13 18 28 31 31 32 33 34 35 34 32 25 25 31 30 27 25 22 21 22 21 19 18 18 17 15 13 12
3 7 7 4 6 5 4 11 5 13 16 18 21 23 26 31 15 4 1 2 2 4 7 5 17 31 30 32 34 33 30 26 26 32 31 27 23 24 24 26 24 21 20 21 17 14 12 12 13
4 3 2 5 6 3 5 3 2 9 11 16 17 25 22 23 20 3 4 0 4 1 4 7 11 24 26 29 27 23 24 26 29 32 30 28 26 27 26 26 22 21 22 18 13 12 12 15 14
4 5 4 2 6 3 3 7 3 6 10 14 15 20 21 23 15 14 6 2 2 6 11 13 15 25 26 26 25 23 25 26 32 30 29 28 27 26 27 24 23 21 18 15 13 13 12 19 18

GFSSGP_925_spd_060.txt.gz
Wind_Speed
9 6 5 3 3 4 4 8 4 14 8 3 9 6 8 7 8 5 8 30 42 45 42 38 36 34 33 32 29 27 25 22 20 19 17 15 14 14 13 11 10 9 9 9 8 8 7 7 6
8 3 3 2 4 0 6 6 16 8 10 18 22 7 3 3 2 9 17 36 46 47 43 40 38 35 33 32 30 28 26 24 22 19 17 15 14 12 11 10 9 8 9 8 8 8 7 7 6
5 3 3 3 4 6 6 4 4 7 15 16 7 8 8 8 4 18 21 45 48 47 44 42 40 37 35 32 30 28 27 26 23 20 18 16 14 13 11 10 9 9 9 9 9 9 8 7 6
1 4 3 2 10 7 6 13 12 15 13 9 8 3 3 11 24 23 39 49 50 48 45 43 42 39 37 33 31 28 26 24 24 22 20 18 15 14 12 11 11 10 11 10 9 9 8 7 6
1 3 0 4 9 7 8 8 8 10 11 12 15 4 9 11 21 36 46 51 50 48 45 44 42 39 37 34 32 30 27 25 24 23 22 19 17 15 14 13 12 12 12 11 10 10 10 9 8
1 3 1 6 10 9 6 8 6 6 9 11 12 9 6 11 33 43 52 53 50 51 47 45 42 39 37 35 33 31 28 26 24 23 22 20 18 17 15 15 14 14 14 12 12 12 11 9 8
4 3 6 5 9 12 8 5 8 6 8 8 4 4 4 5 27 46 50 49 48 48 48 45 43 40 36 35 33 30 28 26 24 23 21 20 19 18 17 17 16 16 16 15 14 14 13 11 10
3 3 4 6 10 13 8 5 5 6 11 6 6 6 4 3 14 21 27 30 38 45 46 45 41 40 37 34 32 30 27 26 24 23 22 20 20 20 20 19 19 20 19 18 17 17 15 14 13
1 2 8 7 11 9 14 7 14 10 9 8 6 3 7 15 18 22 29 25 30 35 41 41 41 39 37 35 33 30 27 25 24 23 23 22 23 23 22 22 21 22 22 20 20 19 18 16 15
5 5 8 6 10 9 14 18 18 17 21 14 9 9 13 28 26 18 16 17 23 27 38 41 40 38 36 34 33 32 30 29 28 27 26 26 26 25 25 24 23 23 24 23 23 22 20 18 18
4 11 6 7 6 8 16 22 17 15 18 15 3 8 7 6 10 6 17 25 36 39 36 38 40 38 37 34 33 32 32 30 30 29 28 28 27 27 27 27 26 25 25 27 25 25 24 23 22
8 10 7 9 13 13 19 20 20 17 20 19 11 7 3 0 5 5 15 30 30 34 41 41 40 41 40 38 36 35 34 32 31 31 31 31 30 30 30 29 29 27 28 30 28 28 28 26 25
8 10 10 11 13 13 14 21 22 26 21 19 20 9 4 5 6 6 5 18 23 24 30 37 40 42 41 41 38 36 35 34 33 32 32 33 33 33 32 32 32 29 29 30 28 29 29 28 28
5 5 10 7 10 8 14 19 16 28 19 17 20 15 7 6 8 10 4 7 21 31 31 35 37 39 38 39 37 36 34 32 31 32 31 32 32 33 33 33 33 31 32 32 29 30 29 29 28
6 7 8 5 3 5 6 18 21 15 11 16 17 18 13 9 10 10 20 16 16 25 32 35 38 37 36 36 35 33 30 31 31 33 31 29 29 32 31 31 31 30 32 31 30 30 29 27 26
5 1 1 3 6 5 7 23 19 12 13 20 15 16 19 11 9 21 17 15 23 27 25 29 35 39 35 36 33 30 27 29 32 33 33 30 28 32 31 31 31 28 30 31 32 30 30 28 25
3 4 4 5 6 6 7 17 6 9 10 17 18 15 13 17 9 21 28 14 21 26 35 36 33 30 33 34 33 31 29 29 33 33 33 31 29 31 33 31 32 28 29 31 31 31 29 28 26
6 6 4 3 3 2 9 15 6 7 8 8 9 12 16 17 20 17 28 33 20 21 30 39 40 34 28 29 37 37 34 34 32 34 32 34 30 30 30 31 34 29 29 31 31 30 29 27 26
7 7 6 4 5 4 8 16 13 6 6 9 11 12 13 14 17 19 27 33 36 23 30 45 39 41 44 41 33 32 34 38 39 37 36 38 35 34 33 33 35 30 31 34 31 29 27 23 19
7 5 7 4 9 11 9 20 18 11 6 8 11 13 9 12 16 18 21 28 35 32 28 40 45 41 44 45 41 32 38 45 41 36 33 31 32 32 32 34 34 30 33 31 30 29 20 18 18
5 4 6 7 11 5 6 19 12 11 7 8 8 8 9 10 13 17 19 19 31 29 26 35 41 45 49 50 42 30 28 18 22 27 27 27 27 31 32 33 33 30 34 29 24 25 23 15 16
2 6 9 11 8 3 4 13 14 14 11 8 9 9 10 13 13 14 15 16 22 29 26 31 41 48 48 48 39 37 29 23 29 27 25 23 27 23 30 32 30 28 28 24 24 22 21 18 13
4 3 4 5 8 2 5 6 9 14 19 18 15 14 17 16 14 16 16 22 31 36 31 29 34 45 45 48 44 38 33 30 26 26 20 22 23 24 29 29 26 28 25 22 23 22 20 20 19
2 4 6 5 1 5 6 7 21 9 13 13 13 16 15 15 17 16 18 25 25 33 32 33 31 41 40 37 36 36 34 29 28 25 19 22 22 25 26 24 24 23 22 22 24 22 19 19 17
5 4 4 4 2 5 1 6 13 12 15 18 8 10 11 14 13 15 20 20 22 24 30 33 35 37 37 36 37 38 38 37 36 28 24 22 25 26 26 25 24 22 23 19 19 19 19 17 18
4 6 4 4 4 11 17 8 8 8 10 1 2 5 9 12 13 17 18 19 20 24 31 32 34 35 41 42 43 44 41 40 37 29 26 24 32 32 28 26 24 18 23 18 16 18 17 17 15
2 3 6 3 8 5 8 13 11 3 6 10 9 9 11 13 15 18 20 20 24 28 27 33 34 37 41 44 44 40 39 34 33 30 26 28 32 32 29 26 24 20 21 19 17 18 18 18 16
4 3 2 1 3 5 4 8 8 7 10 9 11 9 11 13 13 15 17 19 25 20 30 37 37 37 41 42 41 40 39 36 35 31 27 29 30 31 29 26 22 22 22 20 19 19 18 17 14
4 2 2 1 2 3 5 6 6 10 9 8 13 13 14 12 11 14 15 18 28 9 14 18 20 23 25 28 30 29 28 30 31 27 27 28 29 29 28 26 24 22 22 22 21 18 16 15 16
10 5 4 3 5 3 5 9 9 6 6 8 11 15 15 11 10 13 13 16 17 12 3 6 7 13 18 21 25 27 25 25 27 27 28 30 30 26 28 26 24 23 24 22 19 17 16 17 18

GFSSGP_925_spd_063.txt.gz
Wind_Speed
8 6 2 3 3 4 3 7 2 7 8 3 9 5 9 9 9 6 4 34 38 46 45 41 38 36 35 33 32 31 30 28 27 25 24 23 21 20 18 16 14 12 11 11 10 9 9 8 8
7 2 3 2 3 0 5 5 4 5 6 11 10 9 5 7 3 7 16 31 42 49 48 44 40 39 37 35 33 32 30 29 27 25 23 21 19 18 17 15 13 11 10 10 8 8 8 7 7
4 3 2 4 3 6 5 3 2 9 9 7 7 6 5 5 2 14 12 38 45 50 48 46 42 40 39 37 35 33 31 28 26 25 23 21 19 17 14 13 12 10 9 9 8 7 6 6 6
2 3 4 3 11 4 4 6 5 11 10 3 3 11 6 5 7 19 34 45 52 51 48 46 43 42 40 38 36 33 31 29 26 24 22 20 18 16 15 13 11 11 10 9 9 7 6 5 4
1 2 1 3 11 3 3 4 4 9 6 10 8 7 5 6 4 28 45 49 55 51 49 46 43 42 41 39 36 34 31 29 26 24 22 21 19 17 15 14 13 12 11 10 9 8 8 7 6
1 3 2 6 16 3 3 5 3 3 7 12 9 9 4 6 8 30 51 53 52 53 50 46 43 42 40 38 36 34 31 29 26 24 23 22 20 18 16 15 14 14 13 11 10 9 9 8 8
5 3 5 5 12 5 3 2 4 4 7 7 13 6 5 3 1 11 16 33 44 44 47 45 43 42 40 38 36 34 32 29 27 25 24 22 21 20 18 17 15 14 13 13 12 10 10 10 9
3 4 3 5 13 6 4 3 4 3 6 8 5 7 10 1 14 15 15 24 37 40 43 45 44 42 41 39 36 33 31 29 27 25 23 22 20 20 19 18 17 17 16 15 14 13 12 12 11
2 2 8 8 8 2 8 4 2 3 6 6 4 4 9 13 21 18 13 16 27 34 39 42 43 43 40 38 36 34 31 29 27 25 24 23 23 23 21 20 19 19 18 17 17 15 15 13 13
4 5 9 5 8 11 16 6 13 8 14 8 12 14 21 10 8 12 12 13 18 26 37 41 42 42 40 38 36 36 33 32 31 30 28 27 25 24 23 22 21 20 20 20 19 17 17 16 16
5 6 3 2 1 3 13 11 10 9 16 3 11 14 14 2 8 5 3 13 36 34 32 40 42 42 40 39 37 36 35 34 32 31 29 28 27 26 26 24 23 23 22 23 22 20 21 21 19
4 4 2 2 5 5 11 14 14 15 22 8 7 9 7 8 8 4 10 16 18 23 45 45 44 44 42 41 39 37 36 36 34 32 30 30 30 29 29 26 25 24 23 25 24 22 23 23 22
3 4 5 6 8 7 10 16 17 27 20 7 8 7 10 10 9 9 11 18 28 22 24 37 45 45 45 44 42 40 38 39 35 32 32 32 33 32 29 28 27 26 25 26 25 24 25 24 24
2 2 6 5 5 5 9 11 8 25 10 11 8 9 9 10 9 9 7 8 23 32 30 32 41 48 47 46 44 43 41 39 36 33 33 33 34 33 30 28 29 28 26 27 26 24 24 23 24
3 4 5 4 6 7 6 13 18 16 14 13 12 8 7 10 11 11 15 14 13 27 36 36 39 40 43 47 44 43 42 39 38 36 33 32 34 33 30 28 29 27 26 26 25 24 23 22 23
4 4 3 5 2 6 10 18 4 7 7 12 10 9 8 9 10 17 20 18 17 17 28 38 41 42 42 41 42 40 41 41 38 37 30 30 30 30 29 28 27 25 25 25 25 24 24 23 23
6 1 2 6 3 4 6 3 5 7 7 9 11 9 12 10 5 13 15 19 20 20 23 28 34 41 44 44 42 38 39 39 36 34 32 29 28 30 30 29 28 25 25 26 26 24 24 24 24
3 3 4 5 6 4 11 8 6 7 5 8 7 8 12 12 16 11 15 17 26 26 27 30 31 37 41 44 40 39 38 37 36 32 34 29 26 28 31 29 27 26 25 27 27 26 24 23 23
3 3 4 5 6 7 11 17 9 6 5 7 7 8 10 11 11 17 23 17 17 25 30 34 37 37 36 31 27 27 34 39 30 38 37 30 25 28 31 29 27 26 28 27 29 26 23 21 21
2 3 1 4 4 5 9 22 15 5 6 5 7 8 9 10 10 15 19 21 21 23 25 35 38 43 39 36 32 28 33 35 39 42 40 31 26 28 30 29 30 27 27 26 28 27 20 22 21
1 3 2 3 5 4 6 15 8 2 3 6 6 6 8 9 15 15 14 20 26 25 22 28 39 41 46 42 38 26 20 24 29 36 33 32 26 26 31 33 32 30 28 28 29 27 24 18 21
3 2 2 6 6 5 4 13 8 5 8 5 8 8 10 11 11 9 14 16 22 29 32 30 30 43 50 51 36 37 32 26 33 39 42 31 27 32 33 31 32 32 28 27 26 26 25 24 15
4 3 3 2 4 4 2 5 13 15 17 9 9 9 7 7 8 11 12 19 26 28 33 35 29 37 42 41 39 37 31 32 28 31 24 24 27 28 27 28 29 30 27 24 25 24 24 24 18
3 3 5 4 2 2 8 7 13 1 3 6 7 8 7 9 9 12 15 19 23 29 29 33 31 34 41 41 41 39 33 31 28 26 24 24 23 24 22 26 26 25 23 22 23 22 23 23 20
6 5 4 4 2 5 3 3 12 15 15 6 5 9 8 9 10 11 11 12 19 25 27 27 28 35 41 43 40 42 39 40 38 36 32 26 22 21 23 22 22 24 23 23 21 22 24 22 20
5 6 4 4 3 10 9 7 7 5 6 5 7 8 11 12 10 10 11 11 17 23 28 29 30 32 36 41 41 43 45 42 42 42 38 29 24 23 22 21 24 23 22 20 20 21 22 20 19
2 3 5 4 4 2 5 9 9 16 7 7 7 8 12 12 15 15 16 13 19 22 31 31 29 33 29 37 39 42 48 44 43 39 32 26 24 24 23 26 26 23 21 21 21 21 19 19 16
6 4 1 2 3 4 5 7 10 10 14 7 10 12 12 11 14 16 14 13 22 25 33 34 29 33 36 38 42 44 45 41 37 30 27 28 26 24 26 29 26 24 21 22 22 20 20 19 17
2 1 2 2 4 3 4 5 5 10 10 9 12 13 11 14 13 15 15 19 21 24 27 27 22 29 32 42 39 36 34 32 30 27 27 29 27 27 30 30 27 25 24 24 21 21 21 19 16
4 6 6 4 5 3 4 19 9 8 8 9 13 12 11 10 13 16 17 15 14 21 26 24 13 18 30 34 40 38 34 30 26 26 26 29 28 29 30 31 28 25 27 24 23 23 20 18 18

GFSSGP_925_spd_069.txt.gz
Wind_Speed
9 6 0 3 3 1 3 2 2 4 2 2 6 5 7 11 8 3 4 20 24 38 37 38 40 39 38 36 34 33 33 31 29 27 25 24 23 21 19 17 16 14 12 12 11 11 11 11 10
7 2 3 3 3 5 4 2 6 3 5 10 9 5 7 8 15 18 2 20 27 37 41 35 41 41 39 38 36 34 33 31 30 29 27 25 24 22 20 18 16 14 13 12 12 11 11 11 10
3 3 2 2 3 9 2 4 7 4 12 3 5 4 5 4 6 6 4 26 32 34 37 37 42 41 39 37 37 35 34 32 31 29 28 25 23 21 20 18 16 15 14 13 12 11 10 10 9
1 2 2 4 10 2 3 2 7 9 5 4 6 10 4 3 15 11 8 25 33 34 35 40 42 41 39 38 37 36 34 34 32 29 27 25 23 21 19 18 17 15 14 13 12 10 9 8 8
2 2 3 4 6 2 5 6 8 11 9 7 9 10 8 19 22 12 10 26 32 33 33 38 43 42 40 39 37 36 35 34 32 30 27 25 23 21 20 19 17 15 14 13 12 10 9 8 8
2 1 5 9 14 4 4 7 4 5 7 8 10 11 3 20 20 9 9 24 30 31 29 34 43 42 41 39 38 37 35 34 32 30 28 26 23 22 21 19 17 15 15 14 13 13 11 11 10
5 4 12 11 12 7 3 4 2 3 10 4 10 7 6 22 14 6 6 15 25 29 30 30 38 42 42 40 39 38 36 34 32 30 27 25 24 23 21 20 18 15 15 14 14 13 12 11 10
3 4 11 10 14 12 3 4 1 3 3 6 8 5 9 20 9 3 4 9 19 23 27 30 30 31 32 34 40 38 36 34 32 30 27 25 24 23 21 20 18 16 15 14 14 13 12 11 11
4 7 12 18 16 9 2 2 1 3 9 4 2 7 13 18 4 2 4 8 13 19 22 25 28 29 29 28 31 38 36 34 32 30 28 26 22 22 21 21 19 17 16 15 15 14 12 11 11
8 10 17 7 9 11 8 6 8 6 11 11 8 10 14 15 9 8 6 11 14 18 20 22 23 25 26 25 24 29 29 27 26 25 24 23 19 18 17 17 19 18 17 15 15 15 13 12 10
6 12 8 7 10 11 14 9 4 8 17 7 13 17 17 14 10 7 8 10 15 18 18 19 22 24 25 24 22 23 25 24 24 26 25 22 20 18 18 14 16 17 17 13 14 14 14 14 11
7 5 11 14 12 5 7 3 7 11 18 11 11 17 10 14 13 9 9 6 10 18 20 19 21 26 28 24 26 25 24 29 28 28 28 25 24 22 19 16 15 15 14 14 14 14 14 14 12
7 3 4 6 9 8 7 15 15 15 13 16 9 12 14 10 11 12 6 7 4 12 19 29 29 33 33 33 26 28 31 32 33 29 30 28 23 24 21 18 16 16 15 15 14 14 13 14 12
1 2 6 7 10 6 9 17 9 8 5 10 13 13 6 4 7 8 8 5 7 9 14 24 36 37 38 39 38 35 34 32 31 28 31 32 27 23 19 17 16 17 17 16 15 14 14 14 13
1 6 8 11 12 12 11 17 22 2 6 13 10 7 4 5 6 7 6 8 8 8 16 14 30 37 42 44 39 39 39 37 33 31 31 30 29 27 23 19 18 19 18 19 18 17 15 14 12
1 2 4 3 2 5 12 14 2 8 1 6 7 5 6 5 5 7 9 8 12 12 10 10 9 23 34 40 46 46 40 39 38 36 33 33 30 28 26 22 22 18 20 19 18 14 14 14 12
1 3 3 2 5 4 3 5 3 7 9 10 7 6 5 7 5 7 8 12 14 13 14 5 15 19 28 36 39 42 38 43 40 34 35 33 31 27 26 21 26 16 20 22 20 17 16 13 12
1 2 2 5 2 7 7 8 12 10 9 9 9 8 5 4 5 8 11 13 17 17 13 11 9 13 16 23 28 27 24 35 35 38 38 32 29 24 21 22 25 15 21 25 25 21 15 12 11
3 4 5 5 2 9 11 13 13 15 13 12 10 9 7 6 5 10 13 13 15 17 19 16 11 9 8 16 16 18 24 28 33 38 37 33 27 19 21 16 16 16 33 34 24 21 16 13 10
5 5 7 7 5 8 14 19 17 14 14 14 13 8 8 5 8 10 12 12 16 19 21 21 18 15 9 10 15 16 14 18 25 21 26 32 29 28 21 19 29 41 32 25 25 23 14 12 13
6 8 4 5 7 9 12 13 3 4 7 6 3 5 5 8 8 9 10 14 18 20 25 26 25 22 17 13 14 17 18 16 13 20 24 35 34 39 35 26 39 37 32 22 27 24 20 12 13
7 5 3 4 6 8 6 9 12 9 2 4 2 5 5 7 6 7 9 15 18 21 21 24 28 25 21 15 13 19 21 22 22 23 26 32 36 43 41 39 40 44 28 28 25 22 20 14 13
2 2 2 5 11 10 13 7 3 3 6 5 6 2 6 7 6 7 10 14 18 19 22 24 27 28 26 22 16 18 22 25 25 21 24 29 31 37 33 31 42 38 29 28 23 20 23 20 17
3 2 7 1 3 6 3 5 4 4 5 7 10 6 10 5 6 9 13 14 17 18 20 22 24 29 29 27 23 20 24 26 23 22 25 25 30 32 37 35 38 32 27 24 22 20 20 20 18
2 4 4 3 4 3 5 8 11 7 7 11 13 13 12 9 10 10 13 14 17 20 22 22 21 24 28 29 26 25 27 29 27 31 26 21 20 22 33 38 35 29 28 20 18 19 17 19 19
3 3 4 5 4 5 5 9 2 5 7 11 9 7 9 11 10 11 11 13 16 20 22 24 25 24 25 28 32 30 29 26 27 33 30 29 28 27 31 38 34 28 20 17 17 16 17 17 19
3 6 2 6 8 7 6 8 10 10 4 3 1 6 12 13 11 10 10 15 17 18 21 25 23 24 27 28 28 30 30 28 28 33 34 35 32 26 32 33 28 23 16 16 17 18 18 17 20
8 7 3 3 4 6 6 13 9 10 9 3 10 10 13 16 14 10 9 12 17 20 19 23 23 24 26 28 28 29 29 30 32 33 33 31 31 29 29 26 24 16 16 17 18 18 16 16 17
6 8 5 3 4 4 6 5 3 5 9 9 8 12 17 18 11 11 12 15 16 19 22 23 24 26 26 27 28 27 30 32 31 31 31 30 28 29 29 25 20 18 18 20 20 18 17 18 21
8 10 13 7 6 5 6 9 10 13 7 8 16 20 14 13 13 13 13 16 17 19 23 24 26 28 28 30 30 31 29 30 29 28 27 25 26 26 25 23 20 19 22 23 22 19 18 20 24

GFSSGP_925_spd_072.txt.gz
Wind_Speed
11 6 5 6 6 6 12 5 2 6 6 2 5 8 8 12 9 3 4 5 10 26 30 37 37 34 32 32 32 32 31 30 27 25 23 21 20 19 17 15 15 13 12 11 10 10 9 8 7
7 5 4 2 7 10 11 3 10 3 4 7 7 8 10 11 8 12 14 6 16 24 29 33 39 37 34 33 33 33 31 29 27 25 24 22 21 19 18 16 15 14 13 13 12 11 11 10 10
4 3 4 4 11 13 11 4 7 5 5 3 4 5 5 2 13 13 9 4 18 26 28 32 41 39 36 34 33 33 33 31 28 26 25 24 22 20 19 17 16 15 14 13 12 11 10 10 10
4 5 4 9 14 13 9 4 3 5 5 2 5 7 3 4 19 20 21 11 22 26 28 31 41 40 38 35 33 33 33 31 29 28 27 25 23 21 20 18 16 15 14 13 12 11 9 8 8
5 4 9 10 14 4 9 10 10 11 10 8 5 6 2 13 21 18 12 14 25 28 29 29 43 40 39 37 35 34 33 31 30 29 28 26 24 22 20 18 16 14 14 13 11 10 9 9 9
7 5 11 13 15 9 7 7 10 9 9 7 8 8 1 16 24 20 10 12 22 27 28 29 42 40 39 37 35 34 34 33 32 29 28 26 24 22 20 18 17 15 14 12 11 10 9 9 8
13 11 17 18 16 11 10 7 13 10 9 7 5 10 4 17 21 17 7 8 19 23 24 27 32 38 38 37 35 34 33 33 32 30 28 25 22 20 19 18 17 15 14 13 12 10 10 10 9
11 13 22 19 17 20 12 10 11 11 5 6 4 3 10 15 16 12 6 7 16 21 22 24 28 30 29 30 35 34 33 32 31 29 27 24 22 20 19 18 17 14 14 14 12 12 11 11 11
13 14 19 24 21 16 9 12 7 10 11 10 6 8 10 17 16 15 5 6 15 19 21 23 26 27 27 27 26 34 33 32 31 28 26 23 16 15 16 16 15 15 14 15 14 12 12 13 13
14 16 27 22 20 18 14 17 10 7 12 13 11 4 12 19 17 13 11 4 16 18 21 22 24 26 26 26 25 26 24 25 23 21 19 20 17 15 16 14 17 16 15 15 15 15 14 14 12
16 23 21 21 15 17 18 20 17 14 14 14 13 13 16 16 14 12 8 11 10 19 20 21 22 23 26 26 25 23 25 24 24 23 22 19 17 15 15 13 11 13 14 12 14 14 14 14 13
16 16 18 21 16 15 18 17 21 17 16 6 12 14 17 15 13 12 6 5 5 9 21 21 21 22 24 24 25 23 26 24 24 24 22 20 19 16 15 14 11 12 13 13 14 13 14 14 15
16 19 10 14 18 20 18 20 18 17 13 8 14 13 14 16 14 14 5 4 5 2 10 21 23 24 23 23 23 23 25 25 23 21 23 22 20 17 16 14 12 12 10 11 10 12 13 13 14
4 12 14 16 16 18 19 21 18 19 10 9 11 13 15 12 9 9 6 0 5 5 2 7 20 25 26 27 25 23 23 23 22 21 21 21 19 17 15 13 11 11 10 11 9 10 12 15 15
11 13 15 16 18 21 18 22 25 17 9 18 17 13 13 11 10 5 3 1 4 3 0 6 12 19 24 25 24 25 22 23 22 22 19 18 19 17 14 12 11 10 10 11 12 11 12 13 16
11 11 15 14 11 17 14 19 3 2 12 16 17 16 16 11 8 4 1 4 5 8 7 9 5 10 18 22 23 25 24 23 23 21 23 28 21 20 16 14 13 12 11 13 13 12 10 12 15
10 13 8 7 4 4 11 14 20 3 6 5 5 10 11 10 8 3 3 4 6 6 4 5 8 9 12 12 14 19 21 22 25 22 29 31 23 22 21 18 17 18 12 15 15 10 9 11 15
6 9 7 11 7 9 13 13 12 11 10 10 11 13 10 11 8 3 6 6 8 11 10 8 4 7 12 10 7 11 17 21 25 27 26 23 23 26 24 20 20 20 16 15 11 14 10 13 14
8 9 11 8 6 10 13 16 16 16 16 16 14 13 13 11 8 4 9 9 8 7 10 14 12 12 7 18 6 6 19 16 22 26 28 28 27 26 28 23 25 26 29 22 25 31 15 15 13
10 13 12 8 8 9 15 19 20 20 18 19 18 17 15 11 7 6 6 8 9 10 7 7 11 15 15 10 15 12 15 15 20 24 31 32 29 30 29 30 29 31 26 18 17 11 14 13 15
12 12 12 11 13 16 19 20 21 7 10 9 11 10 7 6 4 1 5 7 9 10 12 9 8 8 7 10 9 18 20 24 25 23 27 30 31 33 36 34 29 30 28 18 19 15 17 18 18
14 6 8 10 12 12 8 10 12 10 12 9 11 9 8 5 2 1 2 5 9 11 11 12 9 7 7 5 10 15 18 20 31 30 25 25 28 31 32 32 31 25 25 21 16 16 21 20 21
13 1 9 12 15 18 19 11 14 4 9 9 6 3 5 1 5 3 4 7 8 9 13 12 13 12 8 7 10 14 21 27 28 27 23 21 23 27 28 34 30 27 26 19 20 20 23 22 24
1 9 12 17 13 15 19 14 10 9 7 10 11 3 3 2 3 1 5 8 9 10 10 12 15 13 12 11 11 13 18 22 24 20 23 22 21 23 28 32 30 29 28 23 23 24 21 24 26
11 12 10 10 11 11 6 6 14 4 5 3 6 4 3 5 6 5 7 8 9 11 12 13 14 18 18 16 15 15 17 19 23 23 23 23 24 24 26 32 30 28 25 21 22 21 21 25 27
11 9 10 17 12 10 12 7 2 5 3 4 2 3 3 3 4 7 9 9 10 11 13 14 18 19 18 17 20 20 18 19 21 23 23 25 26 27 22 25 28 27 23 23 21 21 23 25 26
11 11 8 12 16 14 16 14 7 13 9 8 5 5 7 6 10 12 11 11 10 11 11 14 18 19 19 20 21 22 21 21 23 26 26 26 28 26 23 25 26 25 24 25 25 23 26 25 23
13 12 8 10 11 18 14 13 8 12 7 7 5 5 7 12 14 13 12 12 12 13 14 15 16 18 21 21 21 23 24 23 24 26 29 27 27 28 25 28 28 26 26 26 26 24 25 22 19
8 13 12 14 13 12 12 6 10 2 3 5 5 9 14 15 14 13 13 15 17 17 17 17 19 20 19 22 23 23 25 25 27 28 30 29 27 25 29 29 28 27 28 27 27 25 23 20 19
13 18 15 12 15 11 13 16 6 6 6 3 11 14 12 13 12 13 14 17 18 17 18 20 21 23 24 19 22 25 24 26 28 31 32 30 29 28 29 30 27 28 28 26 27 27 21 21 21

GFSSGP_925_spd_075.txt.gz
Wind_Speed
14 10 11 10 7 8 16 18 1 2 5 4 7 5 9 15 12 4 6 7 7 20 26 32 31 28 25 25 26 26 24 24 22 20 18 16 15 14 14 13 12 10 9 9 8 7 6 5 5
10 11 12 8 9 13 13 16 6 9 8 4 9 11 11 12 8 6 12 11 5 19 25 28 33 29 27 27 27 28 26 25 22 21 19 17 16 15 14 13 12 10 10 8 7 7 6 6 5
10 9 8 9 12 16 14 11 3 5 1 8 4 3 7 6 11 11 14 8 4 16 23 27 36 32 29 28 28 29 28 26 24 22 20 18 17 16 15 13 12 11 10 9 8 7 7 6 5
8 11 6 10 18 16 25 15 4 6 6 5 6 7 5 7 12 16 15 10 8 17 21 27 36 34 31 29 28 29 28 27 25 23 22 20 19 17 15 14 12 10 9 9 9 7 6 6 5
12 7 11 15 17 19 15 17 18 11 12 7 8 12 3 6 13 16 13 8 14 19 21 25 36 35 32 30 29 29 29 27 26 24 22 21 20 18 15 13 11 10 8 8 8 7 7 6 5
10 10 15 16 20 15 6 8 21 19 14 11 5 14 7 8 17 16 12 5 15 20 22 22 35 35 32 31 28 28 28 27 26 24 22 21 20 17 16 14 12 11 9 9 8 7 7 6 6
16 14 19 22 21 16 12 7 12 19 18 10 6 4 4 13 17 12 9 3 12 21 23 20 30 33 34 31 29 27 27 26 25 24 24 22 20 17 16 14 13 11 10 10 8 8 7 8 7
14 15 26 23 18 22 12 13 9 12 25 4 3 8 3 12 15 15 8 2 11 20 22 19 25 28 27 27 31 29 27 26 25 24 23 22 20 17 16 14 13 12 11 10 9 10 9 9 10
20 18 21 25 24 19 15 14 13 13 16 26 9 7 7 9 16 14 11 3 9 18 21 20 24 25 26 26 25 30 28 26 25 23 23 21 14 13 13 13 13 13 13 11 11 11 12 12 13
20 17 27 25 22 22 22 19 14 12 14 21 24 15 5 11 17 14 9 9 12 16 20 20 22 24 25 25 23 24 20 20 19 18 17 18 15 14 13 13 15 15 14 13 13 13 14 15 12
22 24 24 21 23 24 24 24 13 16 14 15 21 27 13 13 17 13 14 6 10 15 18 19 20 22 24 25 24 21 23 21 21 21 20 17 17 15 13 12 12 12 13 12 13 12 11 14 14
23 25 23 23 26 25 22 19 21 22 19 16 12 26 22 17 13 15 17 5 7 9 20 17 18 18 21 23 24 21 24 23 23 22 23 19 19 16 14 14 12 11 12 11 13 12 12 14 15
21 21 20 22 19 23 23 22 24 24 17 12 11 18 28 19 16 19 15 6 4 5 6 20 18 18 16 21 19 22 23 24 23 21 23 21 18 17 15 13 13 11 11 12 11 13 15 15 14
16 13 18 22 21 20 23 23 22 27 21 22 17 19 27 24 16 14 13 12 3 3 4 7 16 18 19 20 20 14 16 21 22 22 20 24 20 18 16 14 14 13 13 11 12 15 15 13 12
13 17 18 19 19 21 19 25 28 25 23 22 18 19 21 16 14 10 8 7 3 4 8 7 14 19 22 22 22 18 19 18 19 21 18 20 24 18 18 17 16 15 15 14 16 15 13 12 13
16 18 18 20 23 22 19 26 25 25 23 24 16 19 16 20 13 8 4 2 2 1 2 9 10 11 14 20 21 22 23 19 20 17 20 21 22 24 21 20 19 17 16 16 15 15 15 15 12
17 15 18 19 5 8 18 25 20 22 11 12 14 16 16 21 18 12 8 7 1 2 4 6 13 12 5 13 19 22 22 25 23 22 20 21 24 24 24 22 20 21 19 19 18 21 23 19 18
12 15 12 11 8 13 17 20 19 14 13 15 15 15 16 16 21 17 12 7 4 4 5 7 11 12 15 7 13 19 19 23 22 23 22 25 26 27 31 26 23 23 24 25 27 24 19 17 10
13 16 16 16 9 10 13 19 20 18 18 16 16 16 15 16 13 13 11 8 7 4 5 6 5 8 4 13 17 18 18 21 22 20 22 23 23 24 30 27 26 27 28 29 25 20 18 16 10
14 17 17 17 14 13 16 20 20 20 21 19 19 18 17 17 14 13 7 9 5 1 3 2 1 5 7 5 11 21 17 18 19 15 23 24 24 26 28 31 30 32 30 29 25 23 18 17 11
16 16 16 17 15 15 16 25 25 23 28 24 24 21 20 20 18 15 11 11 7 4 1 2 4 7 8 6 11 12 16 18 17 22 18 13 26 29 32 33 35 31 33 29 30 23 23 16 15
16 14 15 10 13 14 16 17 18 18 13 14 13 13 13 6 8 10 11 11 7 3 2 5 4 5 10 9 9 13 13 17 23 27 23 21 17 25 32 35 36 36 31 31 25 22 21 17 17
16 17 10 15 16 18 21 14 18 20 17 10 9 11 13 13 12 8 7 4 6 3 5 4 5 7 7 9 10 14 15 17 16 19 15 25 17 24 30 32 36 33 37 32 25 17 16 12 18
13 13 15 18 16 17 22 18 18 16 15 13 10 8 7 6 10 10 11 9 8 5 6 5 5 4 8 9 11 14 16 18 17 18 14 17 24 29 30 45 42 38 36 31 26 23 20 17 22
13 15 13 16 15 17 18 7 12 6 4 2 15 11 8 6 8 12 10 8 6 7 7 6 6 5 7 8 12 13 16 16 18 19 19 20 20 27 32 43 39 37 38 30 26 29 27 21 24
17 16 12 18 16 18 4 8 8 8 12 8 6 9 5 9 8 3 5 7 9 9 7 9 7 8 9 8 10 13 16 18 19 20 21 24 25 30 27 29 38 35 32 31 28 27 23 22 24
17 18 19 15 19 17 20 28 26 15 12 8 10 10 10 8 7 8 12 12 12 9 11 9 10 10 9 11 12 13 15 18 19 21 22 23 26 28 30 26 25 31 31 31 29 29 24 23 24
18 18 15 7 13 21 19 21 15 18 15 15 13 10 10 5 11 13 13 13 14 13 13 15 14 12 13 13 12 15 16 16 20 21 23 24 26 28 27 28 28 28 31 31 28 25 23 24 22
15 17 20 18 15 15 17 12 14 10 3 10 11 8 6 13 10 12 12 13 15 16 16 15 13 16 17 17 17 16 16 19 21 22 23 25 24 26 30 32 27 30 29 28 27 25 24 24 23
16 22 18 11 11 14 16 18 7 0 7 11 7 8 13 12 10 11 12 13 15 15 17 12 13 16 18 19 20 22 19 21 22 22 24 26 28 26 28 29 30 30 29 29 29 29 26 26 25